Regional Weather Roundup
Issued by NWS

Home | Current Version | Previous Version | Graphics & Text | Print | Product List | Glossary Off
Versions: 1 2 3 4 5 6 7 8 9 10 11 12 13 14 15 16 17 18 19 20 21 22 23 24 25 26 27 28 29 30 31 32 33 34 35 36 37 38 39 40 41 42 43 44 45 46 47 48 49 50

229
ASUS43 KMKX 040421
RWRWI

WISCONSIN REGIONAL WEATHER ROUNDUP
NATIONAL WEATHER SERVICE MILWAUKEE/SULLIVAN WI
1100 PM CDT TUE MAY 03 2016

NOTE: "FAIR" INDICATES FEW OR NO CLOUDS BELOW 12,000 FEET WITH NO
SIGNIFICANT WEATHER AND/OR OBSTRUCTIONS TO VISIBILITY.

WIZ001-002-006>008-014>016-023>028-040500-
NORTHWEST WISCONSIN

CITY           SKY/WX    TMP DP  RH WIND       PRES   REMARKS
SUPERIOR ARPT  PTCLDY    51  33  48 NE8       29.86R
ASHLAND        CLEAR     46  35  65 NE18G25   29.84R
HAYWARD        CLEAR     51  32  48 NE18      29.81R
SIREN          CLEAR     55  30  38 NE12G18   29.81R
CUMBERLAND     CLEAR     52  30  43 N10G20    29.78R
RICE LAKE      CLEAR     53  32  44 N15       29.79R
CHETEK         CLEAR     54  37  53 NE5G18    29.77R
LADYSMITH      CLEAR     50  37  61 N9G16     29.78R
EAU CLAIRE     CLEAR     48  46  93 N3        29.74R
MENOMONIE      PTCLDY    50  43  76 N6        29.76R
NEW RICHMOND   CLEAR     56  29  36 N13G20    29.78R
OSCEOLA        CLEAR     57  29  34 N8        29.81R
$$

WIZ003>005-009-010-017-018-040500-
NORTH CENTRAL WISCONSIN

CITY           SKY/WX    TMP DP  RH WIND       PRES   REMARKS
MANITOWISH WTR CLEAR     46  39  78 N7        29.76R
ARBOR VITAE    PTCLDY    47  39  74 N7        29.75R
WOODRUFF       PTCLDY    47  39  74 N7        29.75R
RHINELANDER    MOCLDY    41  40  96 CALM      29.74R
EAGLE RIVER    MOCLDY    42  40  94 N6        29.74R
LAND O LAKES   CLOUDY    45  39  80 N12       29.76R
PHILLIPS       CLEAR     46  35  67 N7        29.75R
TOMAHAWK       FOG       37  36  97 CALM      29.73S VSB 1/2
MEDFORD        FOG       40  40 100 N3        29.72S VSB 1
MERRILL        FOG       38  38 100 CALM      29.73S VSB 1/4
$$

WIZ029-030-035-036-043>047-040500-
CENTRAL WISCONSIN

CITY           SKY/WX    TMP DP  RH WIND       PRES   REMARKS
WAUSAU         CLEAR     46  44  93 N3        29.70S
MOSINEE        CLEAR     43  43 100 N6        29.72S
MARSHFIELD     CLEAR     47  44  90 N5        29.70R
STEVENS POINT  PTCLDY    42  42 100 CALM      29.71R FOG
WAUPACA        MOCLDY    48  45  90 N5        29.69F
WAUTOMA        PTCLDY    46  46 100 CALM      29.69S
WISC RAPIDS    FOG       44  42  93 E3        29.71S VSB 1/4
CAMP DOUGLAS   MOCLDY    46  46 100 W5        29.68F
$$

WIZ011>013-019>022-031-037>040-048>050-040500-
NORTHEAST WISCONSIN

CITY           SKY/WX    TMP DP  RH WIND       PRES   REMARKS
ANTIGO         CLEAR     39  39 100 N7        29.71S WCI  34
SHAWANO        CLOUDY    47  44  91 NW3       29.70S
OCONTO         CLOUDY    48  48 100 N5        29.69S
STURGEON BAY   CLOUDY    48  41  76 N13       29.70S
GREEN BAY      LGT RAIN  48  46  93 CALM      29.68S
MANITOWOC      LGT RAIN  48  47  96 MISG      29.68F
APPLETON       LGT RAIN  48  46  93 VRB6      29.66F
CLINTONVILLE   PTCLDY    45  45 100 CALM      29.69S
OSHKOSH        CLOUDY    48  46  93 W3        29.68F
$$

WIZ032>034-041-042-053>061-040500-
SOUTHWEST WISCONSIN

CITY           SKY/WX    TMP DP  RH WIND       PRES   REMARKS
LA CROSSE      CLOUDY    51  49  92 N5        29.70R
SPARTA         PTCLDY    47  47  99 CALM      29.71R
VIROQUA        CLOUDY    47  47 100 W3        29.69R
BOSCOBEL       CLOUDY    51  49  92 W7        29.70F
PRAIRIE DU CHI RAIN      51  48  90 SE6       29.67F
PLATTEVILLE    CLOUDY    50  48  92 N14G23    29.71R
$$

WIZ056-057-062-063-064-067-068-040500-
SOUTH CENTRAL WISCONSIN

CITY           SKY/WX    TMP DP  RH WIND       PRES   REMARKS
REEDSBURG      MOCLDY    48  47  97 CALM      29.68F
BARABOO/DELLS  MOCLDY    48  46  90 CALM      29.68S
LONE ROCK      CLOUDY    51  48  89 CALM      29.67F
MINERAL POINT  HVY RAIN  50  50 100 NE9G18    29.70R
MADISON        LGT RAIN  49  46  90 N6        29.69F
MIDDLETON      CLOUDY    50  47  88 NW6       29.71S
WATERTOWN      RAIN      50  49  99 N8G17     29.69R
MONROE         CLOUDY    55  41  58 SW14      29.64F
JANESVILLE     CLOUDY    59  41  51 W6        29.65F
$$

WIZ051-052-058>065-066-070>072-040500-
SOUTHEAST WISCONSIN

CITY           SKY/WX    TMP DP  RH WIND       PRES   REMARKS
MILWAUKEE      CLOUDY    59  41  51 SW10      29.62F
WAUKESHA       CLOUDY    55  41  58 NW17G25   29.67R
MILWAUKEE/TIMM CLOUDY    59  37  44 W14G20    29.64F
RACINE         CLOUDY    59  40  49 SW9       29.65F
BURLINGTON     CLOUDY    56  41  56 SW9       29.64F
KENOSHA        CLOUDY    59  42  53 SW13      29.64F
FOND DU LAC    CLOUDY    50  47  89 CALM      29.67F
SHEBOYGAN      RAIN      48  46  93 E5        29.67F FOG
WEST BEND      RAIN      50  45  81 N12G17    29.68R
JUNEAU         RAIN      48  46  90 CALM      29.69F
$$

LSZ147-162-040500-
LAKE SUPERIOR

STATION/POSITION TIME  TEMP    WIND        PRES    WAVE
                       AIR SEA DIR/SP/G            HT/PER
                 (UTC) (F)     (DEG/KT/KT) (MB)    (FT/S)
W MID LAKE BUOY  0350   42 37   10/  8/ 10 1010.1R   2/ 4
DEVILS ISLAND    0400   42      60/ 10/ 12 1011.1R
PORT WING        0300   44      40/ 10/ 17   N/A
SAXON HARBOR     0340   44      30/ 19/ 24 1009.5R
$$

LMZ867-665-643>646-040500-
LAKE MICHIGAN

STATION/POSITION TIME  TEMP    WIND        PRES    WAVE
                       AIR SEA DIR/SP/G            HT/PER
                 (UTC) (F)     (DEG/KT/KT) (MB)    (FT/S)
CHAMBERS ISLAND  0300   47     320/  6/  8 1005.8R
N MID LAKE BUOY  0350   42 39  250/  2/  4 1004.9R   2/ 5
NORTHPORT PIER   0340   44     310/  9/ 11 1005.4R
ALGOMA LAKESHORE 0315             CALM       N/A
KEWAUNEE LAKESHO 0400   49     330/  3/  3 1004.3F
SHEBOYGAN LAKESH 0400   46     350/ 14/ 15 1005.5R
PORT WASHINGTON  0400   53     340/  9/ 16 1005.4R
S MID LAKE BUOY  0350   46 41  200/ 10/ 12 1004.5F   1/ 3
KENOSHA   LAKESH 0400   61     220/ 13/ 18 1003.7F
$$

TC  - TEMPERATURE IN CELSIUS
VSB - VISIBILITY IN STATUTE MILES
WCI - WIND CHILL INDEX
HX  - HEAT INDEX





USA.gov is the U.S. government's official web portal to all federal, state and local government web resources and services.